#timestamp,LO_Frequency,Hit,StdDev 
1622185215.7,286047000.3,N
1622185235.5,286047002.4,Y
1622185255.4,286046999.9,P
1622185275.2,286047000.1,N
1622185295.0,286047002.3,P
1622185295.9,286047002.3,N
1622185315.8,286047000.5,N
1622185335.6,286047000.3,N
1622185355.5,286047002.7,N
1622185375.3,286046999.9,N
1622185395.1,286047002.7,N
1622185415.9,286046999.8,N
1622185435.7,286046999.7,N
1622185455.5,286047000.7,N
1622185475.4,286047000.1,N
1622185495.2,286046999.8,N
1622185515.1,286047002.0,N
1622185516.0,286047002.0,N
1622185535.8,286047002.2,N
1622185555.6,286047002.1,N
1622185575.5,286047002.6,N
1622185595.3,286047002.4,N
1622185615.2,286047002.6,N
1622185635.9,286047002.7,N
1622185655.7,286047001.5,N
1622185675.6,286047001.6,N
1622185695.4,286047002.4,N
1622185715.2,286047002.0,N
1622185735.1,286047001.9,N
1622185736.0,286047001.9,N
1622185755.8,286047001.6,N
1622185775.7,286047002.2,N
1622185795.5,286047001.8,N
1622185815.3,286047002.1,N
1622185835.2,286047002.7,N
1622185855.0,286047002.5,N
1622185855.9,286047002.5,N
1622185875.8,286047002.0,N
1622185895.6,286047002.5,N
1622185915.4,286047002.5,N
1622185935.3,286047001.6,N
1622185955.1,286047001.5,N
1622185975.8,286047002.6,Y
1622185995.7,286047000.2,P
1622186015.5,286046999.8,N
1622186035.4,286047002.3,N
1622186055.2,286047002.2,N
1622186075.0,286047002.0,N
1622186075.9,286047002.0,N
1622186095.8,286047002.1,N
1622186115.6,286047001.6,N
1622186135.4,286047002.5,N
1622186155.3,286047002.3,N
1622186175.1,286047002.4,N
1622186195.9,286047002.7,Y
1622186215.7,286046999.3,P
1622186235.5,286046998.2,N
1622186255.4,286046999.3,N
1622186275.2,286046998.8,N
1622186295.0,286046999.3,N
1622186295.9,286046999.3,N
1622186315.8,286046998.4,N
1622186335.6,286046998.6,N
1622186355.5,286046998.8,N
1622186375.3,286046998.8,N
1622186395.1,286046999.0,N
1622186415.9,286046998.4,N
1622186435.7,286046999.4,N
1622186455.5,286046998.6,N
1622186475.4,286046999.0,N
1622186495.2,286046998.3,N
1622186515.1,286046998.2,N
1622186516.0,286046998.2,N
1622186535.8,286046998.3,N
1622186555.6,286046998.2,N
1622186575.5,286047001.2,N
1622186595.3,286047001.2,N
1622186615.1,286046998.6,N
1622186635.9,286047001.1,N
1622186655.7,286046998.5,N
1622186675.6,286047000.8,N
1622186695.4,286046998.5,N
1622186715.2,286046998.5,N
1622186735.1,286047000.8,N
1622186736.0,286047000.8,N
1622186755.8,286046998.5,N
1622186775.7,286046998.3,N
1622186795.5,286047000.7,N
1622186815.3,286047000.7,N
1622186835.2,286047001.1,N
1622186855.0,286047001.2,N
1622186855.9,286047001.2,N
1622186875.7,286047001.1,N
1622186895.6,286047000.5,N
1622186915.4,286047000.9,N
1622186935.3,286047000.4,N
1622186955.1,286046999.9,N
1622186975.8,286047000.0,N
1622186995.7,286047000.3,N
1622187015.5,286047000.3,N
1622187035.4,286047000.5,N
1622187055.2,286047000.4,N
1622187075.0,286047001.0,N
1622187075.9,286047001.0,N
1622187095.8,286047000.9,N
1622187115.6,286047000.9,N
1622187135.5,286047001.0,N
1622187155.3,286047000.3,N
1622187175.1,286046999.8,N
1622187195.9,286046999.8,N
1622187215.7,286047000.4,N
1622187235.5,286047000.9,N
1622187255.4,286047000.3,N
1622187275.2,286047000.9,N
1622187295.1,286047001.0,N
1622187296.0,286047001.0,N
1622187315.8,286047000.5,N
1622187335.6,286047000.5,N
1622187355.5,286047000.5,N
1622187375.3,286047000.5,N
1622187395.1,286047000.6,N
1622187415.9,286047000.8,N
1622187435.7,286047001.1,N
1622187455.6,286047001.2,Y
1622187475.4,286046998.6,P
1622187495.2,286047001.2,N
1622187515.1,286047000.4,N
1622187516.0,286047000.4,N
1622187535.8,286046999.8,N
1622187555.7,286047000.6,N
1622187575.5,286047000.0,N
1622187595.3,286047000.1,N
1622187615.2,286047000.6,N
1622187635.9,286047000.4,N
1622187655.7,286046999.7,N
1622187675.6,286047000.4,N
1622187695.4,286047000.0,N
1622187715.3,286047002.7,Y
1622187735.1,286047000.5,P
1622187736.0,286047000.5,P
1622187755.8,286047000.6,P
1622187775.7,286047000.3,N
1622187795.5,286047000.4,N
1622187815.4,286047000.6,Y
1622187835.2,286047000.8,P
1622187855.0,286047000.7,P
1622187855.9,286047000.7,P
1622187875.8,286046998.5,Y
1622187895.6,286047001.2,P
1622187915.4,286047000.7,N
1622187935.3,286047000.7,N
1622187955.1,286046998.1,Y
1622187975.9,286046998.8,P
1622187995.7,286046998.8,N
1622188015.5,286046998.8,N
1622188035.4,286046998.3,N
1622188055.2,286046999.0,N
1622188075.1,286046998.5,N
1622188076.0,286046998.5,N
1622188095.8,286046998.4,N
1622188115.6,286046998.7,N
1622188135.5,286046998.7,N
1622188155.3,286046998.6,N
1622188175.2,286046998.6,N
1622188195.9,286046998.2,Y
1622188215.7,286047000.0,P
1622188235.6,286047000.3,N
1622188255.4,286047000.6,N
1622188275.2,286046999.9,N
1622188295.1,286047000.5,N
1622188296.0,286047000.5,N
1622188315.8,286047000.2,N
1622188335.7,286047002.7,Y
1622188355.5,286047002.3,P
1622188375.3,286047002.4,N
1622188395.2,286047000.1,N
1622188415.0,286047000.4,N
1622188415.9,286047000.4,N
1622188435.8,286047002.8,N
1622188455.6,286047002.8,N
1622188475.4,286046999.9,N
1622188495.3,286047002.7,N
1622188515.1,286047002.7,N
1622188535.8,286047002.0,N
1622188555.7,286047002.5,N
1622188575.5,286047002.3,N
1622188595.4,286047002.3,N
1622188615.2,286047002.8,N
1622188635.0,286047000.1,N
1622188635.9,286047000.1,N
1622188655.8,286047000.2,N
1622188675.6,286047000.1,N
1622188695.4,286047002.5,N
1622188715.3,286046999.8,N
1622188735.1,286047000.0,N
1622188755.9,286047000.7,N
1622188775.7,286046999.9,N
1622188795.5,286047000.2,N
